Location: Winthrop
(48.4780°N, 120.1850°W)
Time: 22:23:45
(UTC-07:00)

A-11 Canister half - Pass Details

Date: 09 June 2023
Orbit: 1515 x 1684 km, 47.2° (Epoch: 29 September)

Event Time Altitude Azimuth Distance (km) Brightness Sun altitude
Exits shadow 01:16:33 25° 192° (SSW) 2,837 9.8 -18.5°
Maximum altitude 01:21:30 41° 142° (SE) 2,199 9.5 -18.4°
Drops below altitude 10° 01:30:10 10° 77° (ENE) 3,768 11.3 -18.3°
Sets 01:33:25 0° 70° (ENE) 4,732 11.9 -18.2°
